693  
ASUS44 KCRP 072311  
HRRCRP  
 
SOUTH TEXAS REGIONAL WEATHER ROUNDUP  
NATIONAL WEATHER SERVICE CORPUS CHRISTI TX  
600 PM CDT TUE JUL 07 2020  
 
TXZ229>244-080000-   
..CORPUS CHRISTI AREA OBSERVATIONS
 
 
 
CITY SKY/WX TMP DP RH WIND PRES REMARKS  
CORPUS CHRISTI MOSUNNY 89 77 67 SE17G25 29.85F HX 101  
NAS CORPUS CHR PTSUNNY 86 80 82 SE17G30 29.86F HX 101  
ROCKPORT MOSUNNY 88 77 69 SE17G25 29.87S HX 100  
KINGSVILLE NAS PTSUNNY 94 75 54 SE16 29.83F HX 105  
ALICE SUNNY 93 76 57 SE17G24 29.83F HX 105  

 
   
..VICTORIA AREA OBSERVATIONS
 
 
 
CITY SKY/WX TMP DP RH WIND PRES REMARKS  
PORT LAVACA NOT AVBL  
VICTORIA MOSUNNY 92 73 53 SE17 29.89S HX 100  
BEEVILLE FAIR 93 79 65 SE14 29.85F HX 110  
PLEASANTON MOSUNNY 96 70 42 SE8G20 29.85R HX 103  
SAN ANTONIO PTSUNNY 96 68 39 SE14G22 29.87R HX 101  

 
   
..LAREDO AREA OBSERVATIONS
 
 
 
CITY SKY/WX TMP DP RH WIND PRES REMARKS  
LAREDO PTSUNNY 102 70 35 SE14 29.78F HX 110  
COTULLA MOSUNNY 102 70 35 SE16 29.79F HX 110  
DEL RIO SUNNY 103 65 29 SE13 29.79F HX 106  
MCALLEN SUNNY 96 72 45 SE17G28 29.82F HX 104  
HEBBRONVILLE PTSUNNY 98 66 34 SE15G22 29.82F HX 102  

 
   
..OTHER TEXAS OBSERVATIONS
 
 
 
CITY SKY/WX TMP DP RH WIND PRES REMARKS  
BROWNSVILLE MOSUNNY 90 77 65 S21G30 29.84F HX 103  
HOUSTON CLOUDY 82 74 76 NE8 29.92F  
COL. STATION CLOUDY 84 75 74 E5 29.88F HX 92  
AUSTIN PTSUNNY 94 71 47 SE8 29.87S HX 101  
TEMPLE PTSUNNY 90 70 51 SE10 29.90R HX 95  
WACO PTSUNNY 81 74 79 E9 29.91R  
FORT WORTH PTSUNNY 89 75 63 E7 29.87R HX 99  
WICHITA FALLS PTSUNNY 86 72 62 E7 29.89F HX 92  
LUBBOCK MOSUNNY 92 60 34 E9 29.97F HX 91  
EL PASO MOSUNNY 101 46 15 SW6 29.94F HX 97  

 
   
..MARINE OBSERVATIONS
 
 
 
STATION/POSITION TIME SKY/WX TEMP WIND PRES VSBY WAVE SWELL  
AIR SEA DIR/SP/G HT/PER HT/PER  
(UTC) (F) (DEG/KT/KT) (MB) (MI) (FT/S) (FT/S)  
PORT ARANSAS 2300 83 85 130/ 15/ 16 1011.6F  
BUOY 90 E PORT A NOT AVBL  
BUOY 45 SE BAFFI NOT AVBL  
BUOY 200 E PT IS NOT AVBL  
BUOY 15 E GALVES NOT AVBL  

 
 
 
CLICK HERE TO GO TO PREVIOUS BULLETINS.

The Nexlab TX Page Main Text Page